Regional Weather Roundup
Issued by NWS

Home | Current Version | Previous Version | Graphics & Text | Print | Product List | Glossary On
Versions: 1 2 3 4 5 6 7 8 9 10 11 12 13 14 15 16 17 18 19 20 21 22 23 24 25 26 27 28 29 30 31 32 33 34 35 36 37 38 39 40 41 42 43 44 45 46 47 48 49 50
000
ASUS43 KIND 241509
RWRIN

WEATHER ROUNDUP FOR INDIANA
NATIONAL WEATHER SERVICE INDIANAPOLIS IN
1100 AM EDT WED AUG 24 2016

NOTE: "FAIR" INDICATES FEW OR NO CLOUDS BELOW 12,000 FEET WITH NO
SIGNIFICANT WEATHER AND/OR OBSTRUCTIONS TO VISIBILITY.

* - STATION DOES NOT REPORT WEATHER SUCH AS PRECIPITATION OR FOG.

+ - STATION NOT QUALITY CONTROLLED BY THE NATIONAL WEATHER SERVICE.
    USE DATA WITH CAUTION...ESPECIALLY DEWPOINT AND RELATIVE
    HUMIDITY OBSERVATIONS.

INZ001>003-010>013-019-020-241600-
NORTHWEST INDIANA

CITY           SKY/WX    TMP DP  RH WIND       PRES   REMARKS
GARY /AIRPORT/ LGT RAIN  73  72  94 S9        30.03F
KNOX *+        CLOUDY    72  50  46 S8        30.05S
LA PORTE +     LGT RAIN  73  73 100 S5        30.07R
MICHIGAN CITY+ RAIN      72  70  94 MISG      30.05S
MONTICELLO +   LGT RAIN  74  66  77 S5        30.07R
RENSSELAER +   RAIN      72  70  94 S8        30.07R
VALPARAISO     LGT RAIN  71  69  93 S7        30.06R

$$

LMZ046-743>745-241600-
SOUTHERN LAKE MICHIGAN

STATION/POSITION TIME  TEMP    WIND        PRES    WAVE
                       AIR SEA DIR/SP/G            HT
                 (UTC) (F)     (DEG/KT/KT) (MB)    (FT)
BURNS HARBOR     1405   73     190/ 12/ 20 1017.3S
MICHIGAN CITY    1400   72     150/ 12/ 14   N/A
5NW MICH CITY    1400   73 73  200/ 12/ 16   N/A     2

$$

INZ004-005-014>016-021>024-241600-
NORTH CENTRAL INDIANA

CITY           SKY/WX    TMP DP  RH WIND       PRES   REMARKS
ELKHART        CLOUDY    73  68  83 S10       30.07S
GOSHEN         CLOUDY    76  67  73 S10       30.08S
LOGANSPORT +   CLOUDY    73  70  88 S9        30.10R
PERU/GRISSOM   CLOUDY    77  70  81 S13       30.08S
ROCHESTER +    CLOUDY    77  72  83 S9        30.08S
SOUTH BEND     PTSUNNY   74  68  81 SW13      30.07R
WARSAW +       CLOUDY    73  68  83 S5        30.09S

$$

INZ006>009-017-018-025>027-241600-
NORTHEAST INDIANA

CITY           SKY/WX    TMP DP  RH WIND       PRES   REMARKS
ANGOLA *+      PTSUNNY   75  68  78 S8        30.09F
AUBURN +       PTSUNNY   73  64  73 S5        30.11S
FORT WAYNE     CLOUDY    75  66  73 S13       30.11F
HUNTINGTON +   CLOUDY   N/A N/A N/A S6        30.10F

$$

INZ028-029-035-036-043>045-051>053-241600-
WEST CENTRAL INDIANA

CITY           SKY/WX    TMP DP  RH WIND       PRES   REMARKS
CRAWFORDSVL +  CLOUDY    73  73 100 S10       30.09S
GREENCASTLE +  CLOUDY    75  73  94 S6        30.12R
LAFAYETTE      LGT RAIN  74  71  91 SW7       30.08R
TERRE HAUTE    CLOUDY    81  73  76 S9        30.09S

$$

INZ030>032-037>040-046>048-054>057-064-065-241600-
CENTRAL INDIANA

CITY           SKY/WX    TMP DP  RH WIND       PRES   REMARKS
ANDERSON       SUNNY     75  68  78 S12       30.13F
COLUMBUS       PTSUNNY   75  72  88 S12       30.16S
INDIANAPOLIS   CLOUDY    76  69  79 S13       30.12S
-EAGLE CREEK   CLOUDY    76  68  76 S8        30.12S
KOKOMO *+      CLOUDY    75  66  73 S13       30.10S
MARION +       CLOUDY    76  68  77 SW12G17   30.12F
MT COMFORT *+  PTSUNNY   75  70  83 S13       30.13F
SHELBYVILLE    PTSUNNY   77  68  73 SW13G20   30.14F
ZIONSVILLE +   CLOUDY    74  69  86 S9        30.13R

$$

INZ033-034-041-042-049-050-058-059-241600-
EAST CENTRAL INDIANA

CITY           SKY/WX    TMP DP  RH WIND       PRES   REMARKS
MUNCIE         MOSUNNY   77  68  73 S10       30.13F

$$

INZ060-061-067>069-081>083-085>088-241600-
SOUTHWEST INDIANA

CITY           SKY/WX    TMP DP  RH WIND       PRES   REMARKS
EVANSVILLE     MOSUNNY   81  73  76 SW10G20   30.15S
HUNTINGBURG *+ MOSUNNY   82  73  74 S10       30.16S
WASHINGTON +   CLOUDY    81  74  79 MISG      30.12S

$$

INZ062-063-066-070>080-084-089>092-241600-
SOUTH CENTRAL AND SOUTHEAST INDIANA

CITY           SKY/WX    TMP DP  RH WIND       PRES   REMARKS
BLOOMINGTON    MOSUNNY   80  72  76 SW8       30.13F
MADISON *+     MOSUNNY   77  68  73 S6        30.20F

$$





USA.gov is the U.S. government's official web portal to all federal, state and local government web resources and services.